Rae Point,

2:53 PM MDT on September 19, 2017 (GMT -0600)
Rae Point

Weather History for CZRP - March, 2014

Change the Weather History Date:

Tuesday, March 18, 2014

  Actual Average Record
Temperature  
Mean Temperature -26 °F -  
Max Temperature -19 °F - - ()
Min Temperature -34 °F - - ()
Degree Days  
Heating Degree Days 92    
Moisture  
Dew Point -32 °F    
Average Humidity 71    
Maximum Humidity 77    
Minimum Humidity 55    
Precipitation  
Precipitation 0.00 in - - ()
Sea Level Pressure  
Sea Level Pressure 30.18 in    
Wind  
Wind Speed 13 mph ()    
Max Wind Speed 30 mph    
Max Gust Speed 36 mph    
T = Trace of Precipitation, MM = Missing Value Source: Averaged Metar Reports

Daily Weather History Graph

Daily Weather History Graph

Search for Another Location

Airport or City:

Trip Planner

Search our weather history database for the weather conditions in past years. The results will help you decide how hot, cold, wet, or windy it might be!

Date:

Astronomy

Mar. 18, 2014 Rise Set
Actual Time 7:10 AM MDT 7:13 PM MDT
Civil Twilight 5:47 AM MDT 8:38 PM MDT
Nautical Twilight 3:52 AM MDT 10:37 PM MDT
Astronomical Twilight Sun does not set Sun does not set
Moon No Moon Rise 6:09 AM MDT (3/18)
Length of Visible Light 14h 50m
Length of Day
12h 03m
Waning Gibbous, 96% of the Moon is Illuminated
Mar 18
Waning Gibbous
Mar 23
Last Quarter
Mar 30
New
Apr 7
First Quarter
Apr 15
Full

Hourly Weather History & Observations

Time (MDT) Temp. Windchill Dew Point Humidity Pressure Visibility Wind Dir Wind Speed Gust Speed Precip Events Conditions
12:00 AM -34 °F - -40 °F 57% 30.19 in - NNW 10.4 mph - -  
12:00 AM -33.5 °F -57.9 °F -39.8 °F 71% 30.19 in - NNW 10.4 mph - N/A   Unknown
1:00 AM -29.4 °F -57.9 °F -35.5 °F 72% 30.18 in - WNW 16.1 mph - N/A   Unknown
2:00 AM -29.6 °F -58.1 °F -35.9 °F 72% 30.18 in - WNW 16.1 mph - N/A   Unknown
4:00 AM -28.8 °F -58.0 °F -35.1 °F 72% 30.17 in - WNW 17.3 mph - N/A   Unknown
5:00 AM -28.1 °F -57.1 °F -34.2 °F 73% 30.17 in - WNW 17.3 mph - N/A   Unknown
6:00 AM -29 °F - -36 °F 55% 30.17 in - WNW 13.8 mph - -  
6:00 AM -29.2 °F -55.8 °F -35.5 °F 72% 30.17 in - WNW 13.8 mph - N/A   Unknown
7:00 AM -31.0 °F -57.1 °F -37.5 °F 71% 30.17 in - WNW 12.7 mph - N/A   Unknown
8:00 AM -33.0 °F -59.6 °F -39.8 °F 69% 30.18 in - NNW 12.7 mph - N/A   Unknown
9:00 AM -32.6 °F -55.4 °F -39.3 °F 70% 30.18 in - NW 9.2 mph - N/A   Unknown
10:00 AM -28.7 °F -53.0 °F -35.1 °F 71% 30.17 in - NNW 11.5 mph - N/A   Unknown
11:00 AM -29.4 °F -52.7 °F -35.9 °F 71% 30.17 in - NW 10.4 mph - N/A   Unknown
12:00 PM -28 °F - -34 °F 58% 30.16 in - NNW 11.5 mph - -  
12:00 PM -27.6 °F -51.7 °F -34.1 °F 71% 30.16 in - NNW 11.5 mph - N/A   Unknown
1:00 PM -20.7 °F -45.9 °F -26.3 °F 75% 30.17 in - WNW 15.0 mph - N/A   Unknown
2:00 PM -19.5 °F -45.9 °F -24.9 °F 76% 30.17 in - WNW 17.3 mph - N/A   Unknown
3:00 PM -19.1 °F -44.7 °F -24.5 °F 76% 30.19 in - West 16.1 mph - N/A   Unknown
4:00 PM -20.9 °F -50.5 °F -26.9 °F 74% 30.18 in - WNW 21.9 mph - N/A   Unknown
5:00 PM -21.3 °F -52.7 °F -26.9 °F 75% 30.18 in - WNW 25.3 mph - N/A   Unknown
6:00 PM -23 °F - -29 °F 60% 30.20 in - West 18.4 mph - -  
6:00 PM -23.3 °F -51.5 °F -28.8 °F 75% 30.20 in - West 18.4 mph - N/A   Unknown
7:00 PM -22.5 °F -52.6 °F -28.3 °F 75% 30.19 in - WNW 21.9 mph - N/A   Unknown
8:00 PM -23.4 °F -53.1 °F -29.2 °F 74% 30.22 in - West 20.7 mph 26.5 mph N/A   Unknown
9:00 PM -22.7 °F -54.6 °F -28.3 °F 75% 30.20 in - WNW 25.3 mph - N/A   Unknown
10:00 PM -20.2 °F -53.3 °F -25.4 °F 77% 30.19 in - WNW 29.9 mph 35.7 mph N/A   Unknown
11:00 PM -21.5 °F -48.4 °F -27.4 °F 74% 30.23 in - WSW 17.3 mph 25.3 mph N/A   Unknown